Location: Passau
(48.5830°N, 13.4830°E)
Time: 06:30:00
(UTC+02:00)

Transit 4A - Visible Passes

Search period start: 06 August 2021 00:00
Search period end: 16 August 2021 00:00
Orbit: 872 x 972 km, 66.8° (Epoch: 05 August)

Date Brightness Start Highest point End Pass type
(mag) Time Alt. Az. Time Alt. Az. Time Alt. Az.
06 Aug 8.9 01:21:33 18° WSW 01:25:30 40° NW 01:31:00 10° NNE visible
06 Aug 10.2 03:10:06 10° NW 03:13:32 16° NNW 03:17:00 10° NNE visible
06 Aug 10.4 04:59:40 10° NNW 05:02:31 14° N 05:05:22 10° NE visible
06 Aug 9.6 22:03:00 12° E 22:03:00 12° E 22:04:56 10° E visible
06 Aug 7.7 23:46:27 44° S 23:48:15 67° ESE 23:54:02 10° NE visible
07 Aug 9.3 01:29:54 10° W 01:35:03 31° NW 01:40:12 10° NNE visible
07 Aug 10.3 03:20:24 10° NW 03:23:23 14° NNW 03:26:23 10° NNE visible
07 Aug 10.4 05:09:05 10° NNW 05:12:22 15° NNE 05:15:39 10° NE visible
07 Aug 9.1 22:11:13 18° ESE 22:11:57 18° ESE 22:15:43 10° ENE visible
07 Aug 7.7 23:54:39 32° SW 23:57:31 88° NW 00:03:23 10° NE visible
08 Aug 9.7 01:39:55 10° W 01:44:41 25° NNW 01:49:25 10° NNE visible
08 Aug 10.4 03:30:36 10° NNW 03:33:15 13° N 03:35:55 10° NNE visible
08 Aug 8.7 22:19:11 22° SE 22:20:58 26° ESE 22:25:42 10° NE visible
09 Aug 8.1 00:02:37 19° SW 00:06:52 65° NW 00:12:40 10° NNE visible
09 Aug 10.1 01:50:05 10° WNW 01:54:21 20° NNW 01:58:39 10° NNE visible
09 Aug 10.5 03:40:37 10° NNW 03:43:08 13° N 03:45:41 10° NNE visible
09 Aug 8.3 22:26:47 21° SSE 22:30:03 37° ESE 22:35:21 10° NE visible
10 Aug 8.6 00:10:38 10° WSW 00:16:17 48° NW 00:21:56 10° NNE visible
10 Aug 10.3 02:00:21 10° WNW 02:04:06 17° NNW 02:07:53 10° NNE visible
10 Aug 10.6 03:50:23 10° NNW 03:53:02 13° N 03:55:42 10° NNE visible
10 Aug 7.9 22:33:33 10° SSW 22:39:12 54° ESE 22:44:52 10° NE visible
11 Aug 9.2 00:20:24 10° WSW 00:25:46 36° NW 00:31:09 10° NNE visible
11 Aug 10.4 02:10:39 10° NW 02:13:55 15° NNW 02:17:12 10° NNE visible
11 Aug 10.6 03:59:55 10° NNW 04:02:54 14° NNE 04:05:55 10° NE visible
11 Aug 9.4 21:00:16 10° SE 21:03:04 14° ESE 21:05:50 10° ENE visible
11 Aug 7.7 22:42:34 10° SSW 22:48:25 76° ESE 22:54:15 10° NE visible
12 Aug 9.6 00:30:20 10° W 00:35:21 28° NW 00:40:22 10° NNE visible
12 Aug 10.5 02:20:55 10° NW 02:23:46 14° N 02:26:38 10° NNE visible
12 Aug 10.5 04:09:18 10° NNW 04:12:45 16° NNE 04:16:13 10° NE visible
12 Aug 9.0 21:07:50 10° SSE 21:12:02 21° ESE 21:16:12 10° ENE visible
12 Aug 7.8 22:51:51 10° SW 22:57:43 79° NW 23:03:35 10° NNE visible
13 Aug 10.0 00:40:24 10° W 00:45:00 23° NNW 00:49:34 10° NNE visible
13 Aug 10.6 02:31:04 10° NNW 02:33:39 13° N 02:36:14 10° NNE visible
13 Aug 10.5 04:18:35 10° NNW 04:22:32 18° NNE 04:26:32 10° ENE visible
13 Aug 8.5 21:16:05 10° S 21:21:04 30° ESE 21:26:02 10° NE visible
13 Aug 8.4 23:01:19 10° SW 23:07:06 58° NW 23:12:52 10° NNE visible
14 Aug 10.3 00:50:37 10° WNW 00:54:42 19° NNW 00:58:48 10° NNE visible
14 Aug 10.7 02:41:00 10° NNW 02:43:33 13° N 02:46:06 10° NNE visible
14 Aug 10.4 04:27:49 10° NNW 04:32:17 22° NNE 04:36:46 10° E visible
14 Aug 8.1 21:24:42 10° S 21:30:10 42° ESE 21:35:38 10° NE visible
14 Aug 8.9 23:10:59 10° WSW 23:16:32 43° NW 23:22:06 10° NNE visible
15 Aug 10.5 01:00:54 10° WNW 01:04:29 16° NNW 01:08:05 10° NNE visible
15 Aug 10.7 02:50:40 10° NNW 02:53:26 13° N 02:56:12 10° NE visible
15 Aug 10.1 04:37:02 10° NNW 04:41:56 27° NE 04:46:55 10° E visible
15 Aug 7.8 21:33:36 10° SSW 21:39:21 61° ESE 21:45:06 10° NE visible
15 Aug 9.5 23:20:49 10° WSW 23:26:03 33° NW 23:31:18 10° NNE visible
